Catalina Provider — WDI6530 — position and weather

sailwx.info

Track history (hours):
 
Tides and Currents Weather Stations Pressure Air Temp Water Temp Dewpoint Dewpoint Depression Visibility Wind Speed Wind Dir Waves Ship Positions

Catalina Provider

Owner: Avalon Freight Service LLC, San Pedro, CA. More information available from US FCC via Universal Licensing System and Coast Guard Vessel Documentation Center.

Last reported at 2018-Jun-20 05:30 UTC. Time now 2018-Jun-20 05:42 UTC.
Position N 33°28' W 118°18'.

Length 45 m; draft 1.7 m.

Type: Cargo ship. MMSI: 367719640.

Date/timePositionNaut miles runAvg speedWind from/ knotsBaromVisibWave heightAir tempDewpointWater temp
2018-Jun-20 05:30N 33°28' W 118°18'6 2.0
2018-Jun-20 02:18N 33°22' W 118°18'3 8.7
2018-Jun-20 01:54N 33°25' W 118°18'4 8.6
2018-Jun-20 01:29N 33°29' W 118°17'4 8.5
2018-Jun-20 01:00N 33°33' W 118°16'4 8.4
2018-Jun-20 00:30N 33°37' W 118°16'4 8.2
2018-Jun-20 00:01N 33°41' W 118°15'3 6.8
2018-Jun-19 23:30N 33°44' W 118°17'1 1.8
2018-Jun-19 23:00N 33°45' W 118°16'0 0.0
2018-Jun-19 08:14N 33°45' W 118°16'0 1.7
2018-Jun-19 08:00N 33°45' W 118°17'3 6.6
2018-Jun-19 07:30N 33°42' W 118°15'4 8.0
2018-Jun-19 07:00N 33°38' W 118°14'4 7.7
2018-Jun-19 06:30N 33°34' W 118°16'4 8.1
2018-Jun-19 06:00N 33°30' W 118°17'4 8.1
2018-Jun-19 05:29N 33°26' W 118°18'1 0.2
2018-Jun-19 02:05N 33°25' W 118°17'1 8.3
2018-Jun-19 01:59N 33°26' W 118°17'4 8.3
2018-Jun-19 01:30N 33°30' W 118°16'4 8.4
2018-Jun-19 01:00N 33°34' W 118°16'4 8.0
2018-Jun-19 00:30N 33°38' W 118°15'4 8.0
2018-Jun-19 00:00N 33°42' W 118°15'3 5.7
2018-Jun-18 23:30N 33°45' W 118°16'0 0.1
2018-Jun-18 23:00N 33°45' W 118°16'  
2018-Jun-16 08:05N 33°45' W 118°16'0 0.7
2018-Jun-16 08:00N 33°45' W 118°16'2 4.7
2018-Jun-16 07:31N 33°43' W 118°15'4 7.4
2018-Jun-16 07:01N 33°39' W 118°15'4 8.2
2018-Jun-16 06:30N 33°35' W 118°16'4 8.2
2018-Jun-16 06:00N 33°31' W 118°17'4 8.1
2018-Jun-16 05:30N 33°27' W 118°18'4 8.1
2018-Jun-16 05:00N 33°23' W 118°18'3 1.4
2018-Jun-16 02:59N 33°20' W 118°19'3 6.0
2018-Jun-16 02:28N 33°23' W 118°18'4 8.5
2018-Jun-16 01:59N 33°27' W 118°16'4 8.4
2018-Jun-16 01:31N 33°31' W 118°15'4 8.2
2018-Jun-16 00:59N 33°35' W 118°15'4 8.2
2018-Jun-16 00:30N 33°39' W 118°15'4 7.4
2018-Jun-16 00:00N 33°43' W 118°16'2 4.2
2018-Jun-15 23:30N 33°45' W 118°16'0 0.0
2018-Jun-15 23:01N 33°45' W 118°16'0 0.0
2018-Jun-15 22:31N 33°45' W 118°16'0 0.0
2018-Jun-15 22:00N 33°45' W 118°16'0 0.0
2018-Jun-15 21:31N 33°45' W 118°16'0 0.0
2018-Jun-15 21:01N 33°45' W 118°16'0 0.0
2018-Jun-15 20:30N 33°45' W 118°16'0 0.0
2018-Jun-15 20:00N 33°45' W 118°16'0 0.0
2018-Jun-15 19:31N 33°45' W 118°16'0 0.0
2018-Jun-15 19:01N 33°45' W 118°16'0 0.0
2018-Jun-15 18:30N 33°45' W 118°16'0 0.0
2018-Jun-15 18:00N 33°45' W 118°16'0 0.0
2018-Jun-15 17:30N 33°45' W 118°16'0 0.0
2018-Jun-15 08:34N 33°45' W 118°16'0 0.1
2018-Jun-15 08:30N 33°45' W 118°16'2 3.6
2018-Jun-15 08:01N 33°43' W 118°16'4 7.3
2018-Jun-15 07:30N 33°40' W 118°15'4 8.2
2018-Jun-15 07:00N 33°36' W 118°16'4 8.3
2018-Jun-15 06:30N 33°32' W 118°17'4 8.1
2018-Jun-15 05:59N 33°28' W 118°17'7 4.1
2018-Jun-15 04:11N 33°20' W 118°19'0 0.0
2018-Jun-15 04:00N 33°20' W 118°19'0 0.0
2018-Jun-15 03:30N 33°20' W 118°19'0 0.0
2018-Jun-15 02:58N 33°20' W 118°19'0 0.0
2018-Jun-15 02:29N 33°20' W 118°19'3 5.9
2018-Jun-15 02:00N 33°23' W 118°18'4 8.5
2018-Jun-15 01:30N 33°27' W 118°17'4 8.2
2018-Jun-15 01:00N 33°31' W 118°16'4 8.1
2018-Jun-15 00:30N 33°35' W 118°15'4 8.0
2018-Jun-15 00:00N 33°39' W 118°15'4 7.4
2018-Jun-14 23:30N 33°43' W 118°15'2 4.5
2018-Jun-14 23:00N 33°45' W 118°16'0 0.0
2018-Jun-14 07:56N 33°45' W 118°16'2 4.9
2018-Jun-14 07:30N 33°43' W 118°16'4 7.7
2018-Jun-14 06:58N 33°39' W 118°15'4 8.2
2018-Jun-14 06:30N 33°35' W 118°16'4 8.3
2018-Jun-14 06:00N 33°31' W 118°17'4 8.3
2018-Jun-14 05:30N 33°27' W 118°17'4 8.5
2018-Jun-14 05:00N 33°23' W 118°18'3 4.2
2018-Jun-14 04:24N 33°20' W 118°19'0 0.0
2018-Jun-14 03:59N 33°20' W 118°19'0 0.0
2018-Jun-14 03:28N 33°20' W 118°19'0 0.0
2018-Jun-14 03:00N 33°20' W 118°19'1 2.3
2018-Jun-14 02:27N 33°21' W 118°19'4 8.7
2018-Jun-14 02:00N 33°25' W 118°18'3 5.7
2018-Jun-14 01:29N 33°28' W 118°17'4 8.4
2018-Jun-14 01:00N 33°32' W 118°16'4 8.6
2018-Jun-14 00:30N 33°36' W 118°16'4 8.4
2018-Jun-14 00:00N 33°41' W 118°15'3 6.8
2018-Jun-13 23:30N 33°44' W 118°16'1 2.2
2018-Jun-13 23:00N 33°45' W 118°16'0 0.0
2018-Jun-13 22:30N 33°45' W 118°16'0 0.0
2018-Jun-13 08:01N 33°45' W 118°16'0 0.0
2018-Jun-13 08:00N 33°45' W 118°16'2 3.8
2018-Jun-13 07:30N 33°43' W 118°16'4 7.2
2018-Jun-13 07:00N 33°40' W 118°14'4 8.1
2018-Jun-13 06:30N 33°36' W 118°16'4 8.0
2018-Jun-13 06:00N 33°32' W 118°16'4 7.9
2018-Jun-13 05:29N 33°28' W 118°17'4 8.3
2018-Jun-13 04:58N 33°24' W 118°18'3 6.0
2018-Jun-13 04:25N 33°20' W 118°19'0 0.0
2018-Jun-13 04:00N 33°20' W 118°19'0 0.0
2018-Jun-13 03:21N 33°20' W 118°19'0 0.0
2018-Jun-13 03:00N 33°20' W 118°19'1 1.5
2018-Jun-13 02:30N 33°21' W 118°19'4 8.4
2018-Jun-13 02:00N 33°25' W 118°18'4 8.4
2018-Jun-13 01:30N 33°29' W 118°16'4 8.3
2018-Jun-13 01:00N 33°33' W 118°15'4 8.4
2018-Jun-13 00:30N 33°37' W 118°15'4 8.3
2018-Jun-13 00:00N 33°42' W 118°15'3 6.1
2018-Jun-12 23:30N 33°44' W 118°17'1 0.0
2018-Jun-12 07:46N 33°45' W 118°16'1 3.7
2018-Jun-12 07:30N 33°44' W 118°17'3 6.6
2018-Jun-12 07:00N 33°41' W 118°15'4 8.2
2018-Jun-12 06:30N 33°37' W 118°16'4 8.0
2018-Jun-12 06:00N 33°33' W 118°17'4 8.0
2018-Jun-12 05:30N 33°29' W 118°18'4 8.1
2018-Jun-12 04:59N 33°25' W 118°18'4 8.4
2018-Jun-12 04:30N 33°21' W 118°19'1 1.0
2018-Jun-12 04:00N 33°20' W 118°19'0 0.0
2018-Jun-12 03:30N 33°20' W 118°19'0 0.0
2018-Jun-12 03:00N 33°20' W 118°19'0 0.0
2018-Jun-12 02:30N 33°20' W 118°19'3 5.8
2018-Jun-12 02:00N 33°23' W 118°18'4 8.1
2018-Jun-12 01:30N 33°27' W 118°17'4 8.3
2018-Jun-12 01:00N 33°31' W 118°16'4 8.5
2018-Jun-12 00:30N 33°35' W 118°15'4 8.5
2018-Jun-12 00:00N 33°40' W 118°15'4 7.3
2018-Jun-11 23:30N 33°43' W 118°16'2 3.8
2018-Jun-11 23:00N 33°45' W 118°16'0 0.0
2018-Jun-11 22:30N 33°45' W 118°16'  
Track history (hours):
 
Tides and Currents Weather Stations Pressure Air Temp Water Temp Dewpoint Dewpoint Depression Visibility Wind Speed Wind Dir Waves Ship Positions

Catalina Provider

Owner: Avalon Freight Service LLC, San Pedro, CA. More information available from US FCC via Universal Licensing System and Coast Guard Vessel Documentation Center.

Last reported at 2018-Jun-20 05:30 UTC. Time now 2018-Jun-20 05:42 UTC.
Position N 33°28' W 118°18'.

Length 45 m; draft 1.7 m.

Type: Cargo ship. MMSI: 367719640.

Date/timePositionNaut miles runAvg speedWind from/ knotsBaromVisibWave heightAir tempDewpointWater temp
2018-Jun-20 05:30N 33°28' W 118°18'6 2.0
2018-Jun-20 02:18N 33°22' W 118°18'3 8.7
2018-Jun-20 01:54N 33°25' W 118°18'4 8.6
2018-Jun-20 01:29N 33°29' W 118°17'4 8.5
2018-Jun-20 01:00N 33°33' W 118°16'4 8.4
2018-Jun-20 00:30N 33°37' W 118°16'4 8.2
2018-Jun-20 00:01N 33°41' W 118°15'3 6.8
2018-Jun-19 23:30N 33°44' W 118°17'1 1.8
2018-Jun-19 23:00N 33°45' W 118°16'0 0.0
2018-Jun-19 08:14N 33°45' W 118°16'0 1.7
2018-Jun-19 08:00N 33°45' W 118°17'3 6.6
2018-Jun-19 07:30N 33°42' W 118°15'4 8.0
2018-Jun-19 07:00N 33°38' W 118°14'4 7.7
2018-Jun-19 06:30N 33°34' W 118°16'4 8.1
2018-Jun-19 06:00N 33°30' W 118°17'4 8.1
2018-Jun-19 05:29N 33°26' W 118°18'1 0.2
2018-Jun-19 02:05N 33°25' W 118°17'1 8.3
2018-Jun-19 01:59N 33°26' W 118°17'4 8.3
2018-Jun-19 01:30N 33°30' W 118°16'4 8.4
2018-Jun-19 01:00N 33°34' W 118°16'4 8.0
2018-Jun-19 00:30N 33°38' W 118°15'4 8.0
2018-Jun-19 00:00N 33°42' W 118°15'3 5.7
2018-Jun-18 23:30N 33°45' W 118°16'0 0.1
2018-Jun-18 23:00N 33°45' W 118°16'  
2018-Jun-16 08:05N 33°45' W 118°16'0 0.7
2018-Jun-16 08:00N 33°45' W 118°16'2 4.7
2018-Jun-16 07:31N 33°43' W 118°15'4 7.4
2018-Jun-16 07:01N 33°39' W 118°15'4 8.2
2018-Jun-16 06:30N 33°35' W 118°16'4 8.2
2018-Jun-16 06:00N 33°31' W 118°17'4 8.1
2018-Jun-16 05:30N 33°27' W 118°18'4 8.1
2018-Jun-16 05:00N 33°23' W 118°18'3 1.4
2018-Jun-16 02:59N 33°20' W 118°19'3 6.0
2018-Jun-16 02:28N 33°23' W 118°18'4 8.5
2018-Jun-16 01:59N 33°27' W 118°16'4 8.4
2018-Jun-16 01:31N 33°31' W 118°15'4 8.2
2018-Jun-16 00:59N 33°35' W 118°15'4 8.2
2018-Jun-16 00:30N 33°39' W 118°15'4 7.4
2018-Jun-16 00:00N 33°43' W 118°16'2 4.2
2018-Jun-15 23:30N 33°45' W 118°16'0 0.0
2018-Jun-15 23:01N 33°45' W 118°16'0 0.0
2018-Jun-15 22:31N 33°45' W 118°16'0 0.0
2018-Jun-15 22:00N 33°45' W 118°16'0 0.0
2018-Jun-15 21:31N 33°45' W 118°16'0 0.0
2018-Jun-15 21:01N 33°45' W 118°16'0 0.0
2018-Jun-15 20:30N 33°45' W 118°16'0 0.0
2018-Jun-15 20:00N 33°45' W 118°16'0 0.0
2018-Jun-15 19:31N 33°45' W 118°16'0 0.0
2018-Jun-15 19:01N 33°45' W 118°16'0 0.0
2018-Jun-15 18:30N 33°45' W 118°16'0 0.0
2018-Jun-15 18:00N 33°45' W 118°16'0 0.0
2018-Jun-15 17:30N 33°45' W 118°16'0 0.0
2018-Jun-15 08:34N 33°45' W 118°16'0 0.1
2018-Jun-15 08:30N 33°45' W 118°16'2 3.6
2018-Jun-15 08:01N 33°43' W 118°16'4 7.3
2018-Jun-15 07:30N 33°40' W 118°15'4 8.2
2018-Jun-15 07:00N 33°36' W 118°16'4 8.3
2018-Jun-15 06:30N 33°32' W 118°17'4 8.1
2018-Jun-15 05:59N 33°28' W 118°17'7 4.1
2018-Jun-15 04:11N 33°20' W 118°19'0 0.0
2018-Jun-15 04:00N 33°20' W 118°19'0 0.0
2018-Jun-15 03:30N 33°20' W 118°19'0 0.0
2018-Jun-15 02:58N 33°20' W 118°19'0 0.0
2018-Jun-15 02:29N 33°20' W 118°19'3 5.9
2018-Jun-15 02:00N 33°23' W 118°18'4 8.5
2018-Jun-15 01:30N 33°27' W 118°17'4 8.2
2018-Jun-15 01:00N 33°31' W 118°16'4 8.1
2018-Jun-15 00:30N 33°35' W 118°15'4 8.0
2018-Jun-15 00:00N 33°39' W 118°15'4 7.4
2018-Jun-14 23:30N 33°43' W 118°15'2 4.5
2018-Jun-14 23:00N 33°45' W 118°16'0 0.0
2018-Jun-14 07:56N 33°45' W 118°16'2 4.9
2018-Jun-14 07:30N 33°43' W 118°16'4 7.7
2018-Jun-14 06:58N 33°39' W 118°15'4 8.2
2018-Jun-14 06:30N 33°35' W 118°16'4 8.3
2018-Jun-14 06:00N 33°31' W 118°17'4 8.3
2018-Jun-14 05:30N 33°27' W 118°17'4 8.5
2018-Jun-14 05:00N 33°23' W 118°18'3 4.2
2018-Jun-14 04:24N 33°20' W 118°19'0 0.0
2018-Jun-14 03:59N 33°20' W 118°19'0 0.0
2018-Jun-14 03:28N 33°20' W 118°19'0 0.0
2018-Jun-14 03:00N 33°20' W 118°19'1 2.3
2018-Jun-14 02:27N 33°21' W 118°19'4 8.7
2018-Jun-14 02:00N 33°25' W 118°18'3 5.7
2018-Jun-14 01:29N 33°28' W 118°17'4 8.4
2018-Jun-14 01:00N 33°32' W 118°16'4 8.6
2018-Jun-14 00:30N 33°36' W 118°16'4 8.4
2018-Jun-14 00:00N 33°41' W 118°15'3 6.8
2018-Jun-13 23:30N 33°44' W 118°16'1 2.2
2018-Jun-13 23:00N 33°45' W 118°16'0 0.0
2018-Jun-13 22:30N 33°45' W 118°16'0 0.0
2018-Jun-13 08:01N 33°45' W 118°16'0 0.0
2018-Jun-13 08:00N 33°45' W 118°16'2 3.8
2018-Jun-13 07:30N 33°43' W 118°16'4 7.2
2018-Jun-13 07:00N 33°40' W 118°14'4 8.1
2018-Jun-13 06:30N 33°36' W 118°16'4 8.0
2018-Jun-13 06:00N 33°32' W 118°16'4 7.9
2018-Jun-13 05:29N 33°28' W 118°17'4 8.3
2018-Jun-13 04:58N 33°24' W 118°18'3 6.0
2018-Jun-13 04:25N 33°20' W 118°19'0 0.0
2018-Jun-13 04:00N 33°20' W 118°19'0 0.0
2018-Jun-13 03:21N 33°20' W 118°19'0 0.0
2018-Jun-13 03:00N 33°20' W 118°19'1 1.5
2018-Jun-13 02:30N 33°21' W 118°19'4 8.4
2018-Jun-13 02:00N 33°25' W 118°18'4 8.4
2018-Jun-13 01:30N 33°29' W 118°16'4 8.3
2018-Jun-13 01:00N 33°33' W 118°15'4 8.4
2018-Jun-13 00:30N 33°37' W 118°15'4 8.3
2018-Jun-13 00:00N 33°42' W 118°15'3 6.1
2018-Jun-12 23:30N 33°44' W 118°17'1 0.0
2018-Jun-12 07:46N 33°45' W 118°16'1 3.7
2018-Jun-12 07:30N 33°44' W 118°17'3 6.6
2018-Jun-12 07:00N 33°41' W 118°15'4 8.2
2018-Jun-12 06:30N 33°37' W 118°16'4 8.0
2018-Jun-12 06:00N 33°33' W 118°17'4 8.0
2018-Jun-12 05:30N 33°29' W 118°18'4 8.1
2018-Jun-12 04:59N 33°25' W 118°18'4 8.4
2018-Jun-12 04:30N 33°21' W 118°19'1 1.0
2018-Jun-12 04:00N 33°20' W 118°19'0 0.0
2018-Jun-12 03:30N 33°20' W 118°19'0 0.0
2018-Jun-12 03:00N 33°20' W 118°19'0 0.0
2018-Jun-12 02:30N 33°20' W 118°19'3 5.8
2018-Jun-12 02:00N 33°23' W 118°18'4 8.1
2018-Jun-12 01:30N 33°27' W 118°17'4 8.3
2018-Jun-12 01:00N 33°31' W 118°16'4 8.5
2018-Jun-12 00:30N 33°35' W 118°15'4 8.5
2018-Jun-12 00:00N 33°40' W 118°15'4 7.3
2018-Jun-11 23:30N 33°43' W 118°16'2 3.8
2018-Jun-11 23:00N 33°45' W 118°16'0 0.0
2018-Jun-11 22:30N 33°45' W 118°16'  

Dump ship's entire track history